Miscellaneous Local Product
Issued by NWS Hastings, NE

Home | Current Version | Previous Version | Text Only | Print | Product List | Glossary On
Versions: 1 2 3 4 5 6 7 8 9 10 11 12 13 14 15 16 17 18 19 20 21 22 23 24 25 26 27 28 29 30 31 32 33 34 35 36 37 38 39 40 41 42 43 44 45 46 47 48 49 50
000
AXUS43 KGID 052303
MISGRI

GID CWA HOURLY WEATHER ROUNDUP
NATIONAL WEATHER SERVICE HASTINGS NE
500 PM CST MON DEC 05 2022

NOTE: "FAIR" INDICATES FEW OR NO CLOUDS BELOW 12,000 FEET WITH NO
SIGNIFICANT WEATHER AND/OR OBSTRUCTIONS TO VISIBILITY.

...SOUTH CENTRAL NEBRASKA...

CITY           SKY/WX    TMP DP  RH WIND       PRES   REMARKS
GRAND ISLAND   CLOUDY    32  18  56 N13       29.91R WCI  22
KEARNEY        MOCLDY    31  20  63 N14       29.89S WCI  21
HASTINGS       MOCLDY    32  20  61 N17G25    29.89R WCI  21
ORD            CLOUDY    30  16  56 N10       29.91R WCI  21
YORK             N/A     32  19  59 N21G28    29.91R WCI  20
AURORA         MOCLDY    31  19  60 N16       29.91R WCI  20
LEXINGTON      MOCLDY    32  19  59 N9        29.90R WCI  24
HOLDREGE       MOCLDY    32  19  58 N13G22    29.87R WCI  22
HEBRON         PTCLDY    37  23  56 N14       29.88R WCI  28

...NEBRASKA PANHANDLE...

CITY           SKY/WX    TMP DP  RH WIND       PRES   REMARKS
CHADRON        PTCLDY    30  17  58 CALM      29.85S
ALLIANCE       MOCLDY    28  20  71 NE6       29.82S WCI  22
SCOTTSBLUFF    MOCLDY    32  23  69 E6        29.81S WCI  26
SIDNEY         CLOUDY    35  23  61 E7        29.80R WCI  29

...WESTERN AND NORTH CENTRAL NEBRASKA...

CITY           SKY/WX    TMP DP  RH WIND       PRES   REMARKS
VALENTINE      PTCLDY    25   8  48 NE7       29.92R WCI  17
AINSWORTH      CLEAR     24  14  65 N5        29.92R WCI  18
ONEILL         MOCLDY    26  15  62 N7        29.95R WCI  18
BROKEN BOW     CLOUDY    30  15  53 N9        29.90R WCI  22
IMPERIAL       MOCLDY    33  17  51 NE9       29.85R WCI  25
NORTH PLATTE   CLOUDY    32  18  56 NE8       29.89R WCI  25
MCCOOK         PTCLDY    39  19  44 NE10      29.85R WCI  32

...EASTERN NEBRASKA...

CITY           SKY/WX    TMP DP  RH WIND       PRES   REMARKS
NORFOLK        CLOUDY    31  19  61 N14       29.91R WCI  21
SO SIOUX CITY  CLOUDY    32  20  61 N12       29.95R WCI  23
TEKAMAH        CLOUDY    34  20  56 N16       29.93R WCI  24
COLUMBUS       CLOUDY    32  22  66 N12       29.92R WCI  23
ALBION         CLOUDY    30  15  55 N8        29.91R WCI  22
OMAHA EPPLEY   MOCLDY    36  22  56 N15       29.89R WCI  27
OFFUTT AFB     CLOUDY    39  21  49 N12       29.90R WCI  31
MILLARD        MOCLDY    37  23  55 N9        29.89R WCI  31
LINCOLN        PTCLDY    37  22  54 N17       29.90R WCI  27
NEBRASKA CITY  PTCLDY    40  24  54 N13G22    29.85R WCI  32
BEATRICE       MOCLDY    38  25  59 N15       29.87R WCI  29
FALLS CITY     PTCLDY    43  24  47 N7        29.82R

...NORTHERN KANSAS...

CITY           SKY/WX    TMP DP  RH WIND       PRES   REMARKS
GOODLAND         N/A    N/A N/A N/A MISG      29.80R
HILL CITY      MOCLDY    42  20  41 N14G24    29.85R
NORTON         FAIR      37  21  52 NE9       29.88R WCI  31
PHILLIPSBURG   CLEAR     40  16  37 N8        29.87R WCI  34
OBERLIN        FAIR      38  20  46 NE9       29.89R WCI  32
SMITH CENTER   MOCLDY    39  20  47 N13       29.87R WCI  31
HAYS           MOCLDY    44  21  40 NE10      29.82R
RUSSELL        MOCLDY    45  21  38 N12       29.80R
CONCORDIA      MOCLDY    44  23  43 N13G21    29.84R
SALINA         MOCLDY    48  25  40 N10       29.81R
TOPEKA         MOCLDY    47  38  71 E5        29.80R


USA.gov is the U.S. government's official web portal to all federal, state and local government web resources and services.